TimeCDT,TemperatureF,Dew PointF,Humidity,Sea Level PressureIn,VisibilityMPH,Wind Direction,Wind SpeedMPH,Gust SpeedMPH,PrecipitationIn,Events,Conditions,WindDirDegrees,DateUTC
12:55 AM,37.9,23.7,57,30.26,10.0,Calm,Calm,-,N/A,,Clear,0,2012-10-28 05:55:00
1:55 AM,34.3,25.2,69,30.26,10.0,ENE,3.5,-,N/A,,Clear,60,2012-10-28 06:55:00
2:55 AM,36.7,24.6,62,30.26,10.0,Calm,Calm,-,N/A,,Clear,0,2012-10-28 07:55:00
3:55 AM,31.3,24.4,76,30.27,10.0,NE,5.8,-,N/A,,Clear,40,2012-10-28 08:55:00
4:55 AM,33.8,24.4,69,30.27,10.0,Calm,Calm,-,N/A,,Clear,0,2012-10-28 09:55:00
5:55 AM,34.7,24.3,66,30.27,10.0,Calm,Calm,-,N/A,,Clear,0,2012-10-28 10:55:00
6:55 AM,32.0,25.3,76,30.29,10.0,Calm,Calm,-,N/A,,Clear,0,2012-10-28 11:55:00
7:55 AM,31.6,24.4,75,30.30,10.0,Calm,Calm,-,N/A,,Clear,0,2012-10-28 12:55:00
8:55 AM,34.0,27.0,75,30.32,10.0,Calm,Calm,-,N/A,,Clear,0,2012-10-28 13:55:00
9:55 AM,43.5,26.1,50,30.32,1.2,Calm,Calm,-,N/A,,Haze,0,2012-10-28 14:55:00
10:14 AM,46.4,24.8,43,30.32,0.8,SE,3.5,-,N/A,,Haze,140,2012-10-28 15:14:00
10:16 AM,46.4,24.8,43,30.32,0.8,Calm,Calm,-,N/A,,Haze,0,2012-10-28 15:16:00
10:19 AM,46.4,26.6,46,30.32,1.0,SSE,3.5,-,N/A,,Haze,150,2012-10-28 15:19:00
10:26 AM,46.4,26.6,46,30.32,1.5,SSE,5.8,-,N/A,,Haze,150,2012-10-28 15:26:00
10:32 AM,46.4,26.6,46,30.32,3.0,SE,4.6,-,N/A,,Haze,140,2012-10-28 15:32:00
10:55 AM,48.4,26.2,42,30.32,9.0,SE,4.6,-,N/A,,Clear,130,2012-10-28 15:55:00
11:40 AM,51.8,24.8,35,30.31,2.5,SSE,3.5,-,N/A,,Haze,150,2012-10-28 16:40:00
11:43 AM,51.8,24.8,35,30.31,1.8,ESE,3.5,-,N/A,,Haze,120,2012-10-28 16:43:00
11:55 AM,52.3,25.7,36,30.31,2.0,SSW,4.6,-,N/A,,Haze,200,2012-10-28 16:55:00
12:03 PM,53.6,26.6,35,30.30,2.5,SSE,6.9,-,N/A,,Haze,150,2012-10-28 17:03:00
12:13 PM,53.6,24.8,33,30.30,3.0,SSE,5.8,-,N/A,,Haze,150,2012-10-28 17:13:00
12:18 PM,53.6,24.8,33,30.30,2.5,SSE,5.8,-,N/A,,Haze,150,2012-10-28 17:18:00
12:23 PM,53.6,26.6,35,30.30,3.0,Variable,5.8,-,N/A,,Haze,0,2012-10-28 17:23:00
12:35 PM,55.4,24.8,31,30.30,2.5,SSE,3.5,-,N/A,,Haze,160,2012-10-28 17:35:00
12:46 PM,55.4,24.8,31,30.30,3.0,SE,5.8,-,N/A,,Haze,130,2012-10-28 17:46:00
12:55 PM,55.6,25.9,32,30.29,6.0,SE,4.6,-,N/A,,Haze,140,2012-10-28 17:55:00
1:55 PM,58.5,25.7,29,30.25,10.0,South,4.6,-,N/A,,Clear,170,2012-10-28 18:55:00
2:55 PM,61.2,27.1,27,30.22,10.0,SSE,8.1,-,N/A,,Clear,160,2012-10-28 19:55:00
3:55 PM,61.5,26.8,27,30.20,8.0,SSE,8.1,-,N/A,,Clear,160,2012-10-28 20:55:00
4:55 PM,61.3,27.0,27,30.18,6.0,SE,5.8,-,N/A,,Haze,140,2012-10-28 21:55:00
5:55 PM,60.4,26.8,28,30.18,7.0,SSE,8.1,-,N/A,,Clear,150,2012-10-28 22:55:00
6:55 PM,54.9,27.7,35,30.19,5.0,SE,5.8,-,N/A,,Haze,140,2012-10-28 23:55:00
7:08 PM,51.8,26.6,38,30.20,5.0,SE,5.8,-,N/A,,Haze,130,2012-10-29 00:08:00
7:17 PM,51.8,26.6,38,30.20,4.0,SE,6.9,-,N/A,,Haze,140,2012-10-29 00:17:00
7:22 PM,51.8,28.4,41,30.20,4.0,SE,6.9,-,N/A,,Haze,130,2012-10-29 00:22:00
7:55 PM,48.4,27.7,45,30.21,5.0,SE,5.8,-,N/A,,Haze,140,2012-10-29 00:55:00
8:09 PM,46.4,28.4,50,30.21,4.0,SE,6.9,-,N/A,,Haze,140,2012-10-29 01:09:00
8:29 PM,46.4,26.6,46,30.23,4.0,SE,3.5,-,N/A,,Haze,130,2012-10-29 01:29:00
8:55 PM,47.5,27.3,46,30.22,7.0,SE,4.6,-,N/A,,Clear,140,2012-10-29 01:55:00
9:02 PM,46.4,26.6,46,30.22,4.0,SE,3.5,-,N/A,,Haze,140,2012-10-29 02:02:00
9:12 PM,44.6,28.4,53,30.22,4.0,SE,3.5,-,N/A,,Haze,140,2012-10-29 02:12:00
9:22 PM,44.6,28.4,53,30.22,5.0,SE,3.5,-,N/A,,Haze,140,2012-10-29 02:22:00
9:26 PM,42.8,28.4,57,30.22,5.0,Calm,Calm,-,N/A,,Haze,0,2012-10-29 02:26:00
9:32 PM,42.8,28.4,57,30.23,7.0,Calm,Calm,-,N/A,,Clear,0,2012-10-29 02:32:00
9:55 PM,41.7,28.0,58,30.22,5.0,Calm,Calm,-,N/A,,Haze,0,2012-10-29 02:55:00
10:03 PM,42.8,26.6,53,30.23,4.0,SSE,3.5,-,N/A,,Haze,150,2012-10-29 03:03:00
10:09 PM,44.6,28.4,53,30.23,4.0,SSE,4.6,-,N/A,,Haze,160,2012-10-29 03:09:00
10:20 PM,42.8,26.6,53,30.23,4.0,SSE,4.6,-,N/A,,Haze,150,2012-10-29 03:20:00
10:32 PM,42.8,28.4,57,30.23,4.0,SSE,6.9,-,N/A,,Haze,150,2012-10-29 03:32:00
10:37 PM,41.0,28.4,61,30.22,5.0,SSE,8.1,-,N/A,,Haze,160,2012-10-29 03:37:00
10:55 PM,42.3,29.5,61,30.22,8.0,SE,5.8,-,N/A,,Clear,140,2012-10-29 03:55:00
11:00 PM,42.8,28.4,57,30.23,5.0,SE,3.5,-,N/A,,Haze,130,2012-10-29 04:00:00
11:03 PM,42.8,28.4,57,30.23,5.0,Calm,Calm,-,N/A,,Haze,0,2012-10-29 04:03:00
11:11 PM,42.8,28.4,57,30.23,5.0,Calm,Calm,-,N/A,,Haze,0,2012-10-29 04:11:00
11:55 PM,41.2,29.3,63,30.23,8.0,Calm,Calm,-,N/A,,Clear,0,2012-10-29 04:55:00
11:57 PM,39.2,28.4,65,30.24,8.0,Calm,Calm,-,N/A,,Clear,0,2012-10-29 04:57:00